EW9733 Weather Reports


time (UTC)temp
F
wind
direction
speed
knots
gust
knots
rain 1hr
in
rain 24hr
in
rain mn
in
humidity
%
barometer
mb
20260503024621 50 137 0.0 0.0 0.00 0.00 0.00 85 1009.1
20260503023054 50 137 0.0 0.0 0.00 0.00 0.00 84 1009.0
20260503021600 51 137 0.0 0.0 0.00 0.00 0.00 84 1009.2
20260503020053 51 137 0.0 0.9 0.00 0.00 0.00 83 1009.4
20260503014553 51 138 0.0 1.7 0.00 0.00 0.00 82 1009.3
20260503013052 51 138 0.0 0.9 0.00 0.00 0.00 82 1009.4
20260503011557 51 138 0.0 3.5 0.00 0.00 0.00 81 1009.4
20260503010051 51 144 0.0 1.7 0.00 0.00 0.00 81 1009.2
20260503004551 51 186 0.0 4.3 0.00 0.00 0.00 80 1009.1
20260503003049 52 142 0.9 2.6 0.00 0.00 0.00 79 1009.1
20260503001559 52 138 0.0 2.6 0.00 0.00 0.00 79 1009.1
20260503000104 52 166 0.0 2.6 0.00 0.00 0.00 78 1009.1
20260502234605 52 169 0.0 1.7 0.00 0.00 0.00 77 1009.2
20260502233105 52 201 0.0 3.5 0.00 0.00 0.00 76 1009.2
20260502231602 53 160 0.0 3.5 0.00 0.00 0.00 76 1009.3
20260502230048 53 198 0.0 3.5 0.00 0.00 0.00 75 1009.2
20260502224544 53 163 0.9 5.2 0.00 0.00 0.00 75 1009.1
20260502223048 53 178 0.0 4.3 0.00 0.00 0.00 74 1008.8
20260502221557 53 199 0.0 2.6 0.00 0.00 0.00 74 1008.9
20260502220044 53 190 0.0 2.6 0.00 0.00 0.00 74 1008.9
20260502214541 53 165 0.0 3.5 0.00 0.00 0.00 73 1009.0
20260502213050 54 182 0.0 1.7 0.00 0.00 0.00 74 1009.1
20260502211545 54 204 0.9 6.1 0.00 0.00 0.00 73 1008.9
20260502210041 54 162 0.9 4.3 0.00 0.00 0.00 70 1009.0
20260502204547 54 159 2.6 8.7 0.00 0.00 0.00 68 1008.9
20260502203038 54 182 1.7 8.7 0.00 0.00 0.00 68 1008.9
20260502201534 54 151 0.9 6.1 0.00 0.00 0.00 68 1009.2
20260502200034 54 151 0.9 7.8 0.00 0.00 0.00 65 1009.4
20260502194536 55 197 0.0 8.7 0.00 0.00 0.00 59 1009.4
20260502193033 55 198 0.9 8.7 0.00 0.00 0.00 57 1009.6
20260502191537 57 148 3.5 8.7 0.00 0.00 0.00 55 1009.6
20260502190030 57 155 0.0 7.0 0.00 0.00 0.00 55 1009.4
20260502184533 57 159 1.7 7.0 0.00 0.00 0.00 55 1009.6
20260502183028 56 5 0.0 7.8 0.00 0.00 0.00 58 1009.8
20260502181530 57 201 0.9 6.1 0.00 0.00 0.00 52 1010.0
20260502163030 59 201 2.6 7.0 0.00 0.00 0.00 56 1010.0
20260502161518 59 43 0.9 5.2 0.00 0.00 0.00 57 1010.0
20260502151513 58 132 0.0 7.8 0.00 0.00 0.00 67 1010.9
20260502123051 53 184 1.7 4.3 0.00 0.00 0.00 72 1011.0
20260502121551 53 221 0.9 5.2 0.00 0.00 0.00 72 1011.1
20260502114541 50 161 1.7 5.2 0.00 0.00 0.00 78 1010.7
20260502113037 49 158 0.0 2.6 0.00 0.00 0.00 78 1010.8
20260502111532 49 157 0.0 1.7 0.00 0.00 0.00 78 1010.9
20260502110030 48 147 0.0 4.3 0.00 0.00 0.00 79 1010.9
20260502104548 47 159 0.0 2.6 0.00 0.00 0.00 81 1010.6
20260502103039 46 153 0.0 2.6 0.00 0.00 0.00 82 1010.7
20260502101535 46 159 0.0 5.2 0.00 0.00 0.00 81 1010.5
20260502091529 46 157 0.0 1.7 0.00 0.00 0.00 81 1010.5
20260502070016 46 140 0.0 0.9 0.00 0.00 0.00 75 1010.4
20260502064518 47 139 0.0 3.5 0.00 0.00 0.00 74 1010.4
20260502063014 46 174 0.0 2.6 0.00 0.00 0.00 75 1010.4
20260502061513 46 142 0.0 0.9 0.00 0.00 0.00 74 1010.4
20260502060012 46 142 0.0 6.1 0.00 0.00 0.00 73 1010.4
20260502054517 46 135 0.0 2.6 0.00 0.00 0.00 73 1010.5
20260502053009 46 165 0.0 1.7 0.00 0.00 0.00 73 1010.6
20260502051517 46 165 0.0 2.6 0.00 0.00 0.00 74 1010.6
20260502050009 46 144 0.0 2.6 0.00 0.00 0.00 73 1010.7
20260502044505 46 141 0.0 2.6 0.00 0.00 0.00 71 1010.7
20260502043005 46 134 0.0 1.7 0.00 0.00 0.00 73 1010.6
20260502041502 46 135 0.0 0.9 0.00 0.00 0.00 72 1010.7
20260502040059 47 135 0.0 1.7 0.00 0.00 0.00 72 1010.7
20260502040001 47 135 0.0 1.7 0.00 0.00 0.00 72 1010.8
20260502034558 47 134 0.0 3.5 0.00 0.00 0.00 74 1010.6
20260502033058 48 148 0.0 5.2 0.00 0.00 0.00 71 1010.6
20260502031609 49 130 0.0 2.6 0.00 0.00 0.00 71 1010.6
20260502030054 47 191 0.9 5.2 0.00 0.00 0.00 77 1010.5